Year,Month,Day,Hour,Minute,Value (Times are PST for temperature in C)
2012,10,17,00,00,10.50
2012,10,17,00,01,10.50
2012,10,17,00,02,10.50
2012,10,17,00,03,10.60
2012,10,17,00,04,10.60
2012,10,17,00,05,10.60
2012,10,17,00,06,10.60
2012,10,17,00,07,10.60
2012,10,17,00,08,10.60
2012,10,17,00,09,10.60
2012,10,17,00,10,10.60
2012,10,17,00,11,10.60
2012,10,17,00,12,10.60
2012,10,17,00,13,10.60
2012,10,17,00,14,10.60
2012,10,17,00,15,10.60
2012,10,17,00,16,10.60
2012,10,17,00,17,10.60
2012,10,17,00,18,10.60
2012,10,17,00,19,10.50
2012,10,17,00,20,10.50
2012,10,17,00,21,10.50
2012,10,17,00,22,10.50
2012,10,17,00,23,10.40
2012,10,17,00,24,10.40
2012,10,17,00,25,10.40
2012,10,17,00,26,10.30
2012,10,17,00,27,10.30
2012,10,17,00,28,10.30
2012,10,17,00,29,10.30
2012,10,17,00,30,10.30
2012,10,17,00,31,10.30
2012,10,17,00,32,10.20
2012,10,17,00,33,10.20
2012,10,17,00,34,10.20
2012,10,17,00,35,10.20
2012,10,17,00,36,10.20
2012,10,17,00,37,10.20
2012,10,17,00,38,10.20
2012,10,17,00,39,10.10
2012,10,17,00,40,10.10
2012,10,17,00,41,10.10
2012,10,17,00,42,10.10
2012,10,17,00,43,10.00
2012,10,17,00,44,10.00
2012,10,17,00,45,10.00
2012,10,17,00,46,10.00
2012,10,17,00,47,9.90
2012,10,17,00,48,9.90
2012,10,17,00,49,9.90
2012,10,17,00,50,9.90
2012,10,17,00,51,9.90
2012,10,17,00,52,9.90
2012,10,17,00,53,9.90
2012,10,17,00,54,9.90
2012,10,17,00,55,9.90
2012,10,17,00,56,9.90
2012,10,17,00,57,9.90
2012,10,17,00,58,9.90
2012,10,17,00,59,9.90
2012,10,17,01,00,10.00
2012,10,17,01,01,10.00
2012,10,17,01,02,10.00
2012,10,17,01,03,10.10
2012,10,17,01,04,10.10
2012,10,17,01,05,10.10
2012,10,17,01,06,10.10
2012,10,17,01,07,10.10
2012,10,17,01,08,10.10
2012,10,17,01,09,10.10
2012,10,17,01,10,10.10
2012,10,17,01,11,10.00
2012,10,17,01,12,10.00
2012,10,17,01,13,10.00
2012,10,17,01,14,10.00
2012,10,17,01,15,10.00
2012,10,17,01,16,10.00
2012,10,17,01,17,10.00
2012,10,17,01,18,9.90
2012,10,17,01,19,9.90
2012,10,17,01,20,9.90
2012,10,17,01,21,9.90
2012,10,17,01,22,9.90
2012,10,17,01,23,9.90
2012,10,17,01,24,9.80
2012,10,17,01,25,9.80
2012,10,17,01,26,9.80
2012,10,17,01,27,9.80
2012,10,17,01,28,9.80
2012,10,17,01,29,9.80
2012,10,17,01,30,9.80
2012,10,17,01,31,9.80
2012,10,17,01,32,9.70
2012,10,17,01,33,9.70
2012,10,17,01,34,9.70
2012,10,17,01,35,9.70
2012,10,17,01,36,9.70
2012,10,17,01,37,9.70
2012,10,17,01,38,9.70
2012,10,17,01,39,9.70
2012,10,17,01,40,9.70
2012,10,17,01,41,9.70
2012,10,17,01,42,9.70
2012,10,17,01,43,9.70
2012,10,17,01,44,9.70
2012,10,17,01,45,9.70
2012,10,17,01,46,9.80
2012,10,17,01,47,9.80
2012,10,17,01,48,9.70
2012,10,17,01,49,9.70
2012,10,17,01,50,9.70
2012,10,17,01,51,9.70
2012,10,17,01,52,9.70
2012,10,17,01,53,9.70
2012,10,17,01,54,9.60
2012,10,17,01,55,9.60
2012,10,17,01,56,9.50
2012,10,17,01,57,9.50
2012,10,17,01,58,9.40
2012,10,17,01,59,9.40
2012,10,17,02,00,9.30
2012,10,17,02,01,9.30
2012,10,17,02,02,9.30
2012,10,17,02,03,9.20
2012,10,17,02,04,9.20
2012,10,17,02,05,9.20
2012,10,17,02,06,9.10
2012,10,17,02,07,9.10
2012,10,17,02,08,9.10
2012,10,17,02,09,9.00
2012,10,17,02,10,9.00
2012,10,17,02,11,8.90
2012,10,17,02,12,8.80
2012,10,17,02,13,8.80
2012,10,17,02,14,8.80
2012,10,17,02,15,8.70
2012,10,17,02,16,8.70
2012,10,17,02,17,8.70
2012,10,17,02,18,8.70
2012,10,17,02,19,8.70
2012,10,17,02,20,8.60
2012,10,17,02,21,8.60
2012,10,17,02,22,8.50
2012,10,17,02,23,8.50
2012,10,17,02,24,8.50
2012,10,17,02,25,8.40
2012,10,17,02,26,8.40
2012,10,17,02,27,8.40
2012,10,17,02,28,8.40
2012,10,17,02,29,8.30
2012,10,17,02,30,8.30
2012,10,17,02,31,8.30
2012,10,17,02,32,8.30
2012,10,17,02,33,8.20
2012,10,17,02,34,8.20
2012,10,17,02,35,8.20
2012,10,17,02,36,8.20
2012,10,17,02,37,8.20
2012,10,17,02,38,8.10
2012,10,17,02,39,8.10
2012,10,17,02,40,8.10
2012,10,17,02,41,8.10
2012,10,17,02,42,8.10
2012,10,17,02,43,8.10
2012,10,17,02,44,8.00
2012,10,17,02,45,8.10
2012,10,17,02,46,8.10
2012,10,17,02,47,8.10
2012,10,17,02,48,8.20
2012,10,17,02,49,8.30
2012,10,17,02,50,8.30
2012,10,17,02,51,8.40
2012,10,17,02,52,8.50
2012,10,17,02,53,8.60
2012,10,17,02,54,8.70
2012,10,17,02,55,8.70
2012,10,17,02,56,8.80
2012,10,17,02,57,8.80
2012,10,17,02,58,8.90
2012,10,17,02,59,9.00
2012,10,17,03,00,9.00
2012,10,17,03,01,9.10
2012,10,17,03,02,9.20
2012,10,17,03,03,9.30
2012,10,17,03,04,9.30
2012,10,17,03,05,9.30
2012,10,17,03,06,9.30
2012,10,17,03,07,9.30
2012,10,17,03,08,9.40
2012,10,17,03,09,9.40
2012,10,17,03,10,9.40
2012,10,17,03,11,9.50
2012,10,17,03,12,9.60
2012,10,17,03,13,9.60
2012,10,17,03,14,9.60
2012,10,17,03,15,9.70
2012,10,17,03,16,9.70
2012,10,17,03,17,9.80
2012,10,17,03,18,9.80
2012,10,17,03,19,9.80
2012,10,17,03,20,9.80
2012,10,17,03,21,9.80
2012,10,17,03,22,9.80
2012,10,17,03,23,9.80
2012,10,17,03,24,9.80
2012,10,17,03,25,9.80
2012,10,17,03,26,9.80
2012,10,17,03,27,9.90
2012,10,17,03,28,9.90
2012,10,17,03,29,9.90
2012,10,17,03,30,9.90
2012,10,17,03,31,9.90
2012,10,17,03,32,9.90
2012,10,17,03,33,9.90
2012,10,17,03,34,9.90
2012,10,17,03,35,10.00
2012,10,17,03,36,10.00
2012,10,17,03,37,10.10
2012,10,17,03,38,10.10
2012,10,17,03,39,10.10
2012,10,17,03,40,10.10
2012,10,17,03,41,10.10
2012,10,17,03,42,10.10
2012,10,17,03,43,10.10
2012,10,17,03,44,10.10
2012,10,17,03,45,10.10
2012,10,17,03,46,10.10
2012,10,17,03,47,10.10
2012,10,17,03,48,10.10
2012,10,17,03,49,10.10
2012,10,17,03,50,10.10
2012,10,17,03,51,10.00
2012,10,17,03,52,10.00
2012,10,17,03,53,10.00
2012,10,17,03,54,10.00
2012,10,17,03,55,10.00
2012,10,17,03,56,10.00
2012,10,17,03,57,10.00
2012,10,17,03,58,10.00
2012,10,17,03,59,10.00
2012,10,17,04,00,9.90
2012,10,17,04,01,9.90
2012,10,17,04,02,9.90
2012,10,17,04,03,9.90
2012,10,17,04,04,9.90
2012,10,17,04,05,9.90
2012,10,17,04,06,9.90
2012,10,17,04,07,9.90
2012,10,17,04,08,9.90
2012,10,17,04,09,9.90
2012,10,17,04,10,9.90
2012,10,17,04,11,9.90
2012,10,17,04,12,9.90
2012,10,17,04,13,9.90
2012,10,17,04,14,9.90
2012,10,17,04,15,9.90
2012,10,17,04,16,9.90
2012,10,17,04,17,9.90
2012,10,17,04,18,9.90
2012,10,17,04,19,9.80
2012,10,17,04,20,9.80
2012,10,17,04,21,9.80
2012,10,17,04,22,9.80
2012,10,17,04,23,9.80
2012,10,17,04,24,9.80
2012,10,17,04,25,9.80
2012,10,17,04,26,9.80
2012,10,17,04,27,9.80
2012,10,17,04,28,9.70
2012,10,17,04,29,9.70
2012,10,17,04,30,9.70
2012,10,17,04,31,9.70
2012,10,17,04,32,9.70
2012,10,17,04,33,9.70
2012,10,17,04,34,9.70
2012,10,17,04,35,9.70
2012,10,17,04,36,9.70
2012,10,17,04,37,9.70
2012,10,17,04,38,9.70
2012,10,17,04,39,9.70
2012,10,17,04,40,9.60
2012,10,17,04,41,9.60
2012,10,17,04,42,9.60
2012,10,17,04,43,9.60
2012,10,17,04,44,9.50
2012,10,17,04,45,9.50
2012,10,17,04,46,9.50
2012,10,17,04,47,9.50
2012,10,17,04,48,9.50
2012,10,17,04,49,9.50
2012,10,17,04,50,9.50
2012,10,17,04,51,9.50
2012,10,17,04,52,9.60
2012,10,17,04,53,9.50
2012,10,17,04,54,9.50
2012,10,17,04,55,9.50
2012,10,17,04,56,9.50
2012,10,17,04,57,9.50
2012,10,17,04,58,9.50
2012,10,17,04,59,9.40
2012,10,17,05,00,9.40
2012,10,17,05,01,9.40
2012,10,17,05,02,9.40
2012,10,17,05,03,9.40
2012,10,17,05,04,9.40
2012,10,17,05,05,9.40
2012,10,17,05,06,9.30
2012,10,17,05,07,9.30
2012,10,17,05,08,9.30
2012,10,17,05,09,9.30
2012,10,17,05,10,9.20
2012,10,17,05,11,9.20
2012,10,17,05,12,9.20
2012,10,17,05,13,9.10
2012,10,17,05,14,9.00
2012,10,17,05,15,9.00
2012,10,17,05,16,8.90
2012,10,17,05,17,8.90
2012,10,17,05,18,8.80
2012,10,17,05,19,8.80
2012,10,17,05,20,8.70
2012,10,17,05,21,8.60
2012,10,17,05,22,8.60
2012,10,17,05,23,8.50
2012,10,17,05,24,8.40
2012,10,17,05,25,8.40
2012,10,17,05,26,8.30
2012,10,17,05,27,8.30
2012,10,17,05,28,8.20
2012,10,17,05,29,8.20
2012,10,17,05,30,8.10
2012,10,17,05,31,8.10
2012,10,17,05,32,8.10
2012,10,17,05,33,8.00
2012,10,17,05,34,8.00
2012,10,17,05,35,7.90
2012,10,17,05,36,7.90
2012,10,17,05,37,7.90
2012,10,17,05,38,7.90
2012,10,17,05,39,7.90
2012,10,17,05,40,7.90
2012,10,17,05,41,8.00
2012,10,17,05,42,8.00
2012,10,17,05,43,8.00
2012,10,17,05,44,8.00
2012,10,17,05,45,8.00
2012,10,17,05,46,7.90
2012,10,17,05,47,7.90
2012,10,17,05,48,7.90
2012,10,17,05,49,7.90
2012,10,17,05,50,7.80
2012,10,17,05,51,7.80
2012,10,17,05,52,7.80
2012,10,17,05,53,7.80
2012,10,17,05,54,7.80
2012,10,17,05,55,7.80
2012,10,17,05,56,7.80
2012,10,17,05,57,7.80
2012,10,17,05,58,7.80
2012,10,17,05,59,7.80
2012,10,17,06,00,7.80
2012,10,17,06,01,7.80
2012,10,17,06,02,7.80
2012,10,17,06,03,7.70
2012,10,17,06,04,7.70
2012,10,17,06,05,7.80
2012,10,17,06,06,7.80
2012,10,17,06,07,7.80
2012,10,17,06,08,7.70
2012,10,17,06,09,7.70
2012,10,17,06,10,7.70
2012,10,17,06,11,7.70
2012,10,17,06,12,7.80
2012,10,17,06,13,7.90
2012,10,17,06,14,8.10
2012,10,17,06,15,8.20
2012,10,17,06,16,8.30
2012,10,17,06,17,8.50
2012,10,17,06,18,8.60
2012,10,17,06,19,8.70
2012,10,17,06,20,8.80
2012,10,17,06,21,8.90
2012,10,17,06,22,9.00
2012,10,17,06,23,9.00
2012,10,17,06,24,9.00
2012,10,17,06,25,9.10
2012,10,17,06,26,9.00
2012,10,17,06,27,9.00
2012,10,17,06,28,9.00
2012,10,17,06,29,8.90
2012,10,17,06,30,8.90
2012,10,17,06,31,8.80
2012,10,17,06,32,8.80
2012,10,17,06,33,8.70
2012,10,17,06,34,8.70
2012,10,17,06,35,8.60
2012,10,17,06,36,8.50
2012,10,17,06,37,8.50
2012,10,17,06,38,8.40
2012,10,17,06,39,8.30
2012,10,17,06,40,8.30
2012,10,17,06,41,8.20
2012,10,17,06,42,8.20
2012,10,17,06,43,8.20
2012,10,17,06,44,8.10
2012,10,17,06,45,8.10
2012,10,17,06,46,8.10
2012,10,17,06,47,8.00
2012,10,17,06,48,8.00
2012,10,17,06,49,7.90
2012,10,17,06,50,7.90
2012,10,17,06,51,7.80
2012,10,17,06,52,7.80
2012,10,17,06,53,7.80
2012,10,17,06,54,7.80
2012,10,17,06,55,7.70
2012,10,17,06,56,7.70
2012,10,17,06,57,7.70
2012,10,17,06,58,7.70
2012,10,17,06,59,7.70
2012,10,17,07,00,7.60
2012,10,17,07,01,7.60
2012,10,17,07,02,7.60
2012,10,17,07,03,7.60
2012,10,17,07,04,7.60
2012,10,17,07,05,7.60
2012,10,17,07,06,7.60
2012,10,17,07,07,7.60
2012,10,17,07,08,7.50
2012,10,17,07,09,7.50
2012,10,17,07,10,7.50
2012,10,17,07,11,7.40
2012,10,17,07,12,7.40
2012,10,17,07,13,7.40
2012,10,17,07,14,7.30
2012,10,17,07,15,7.30
2012,10,17,07,16,7.30
2012,10,17,07,17,7.30
2012,10,17,07,18,7.30
2012,10,17,07,19,7.30
2012,10,17,07,20,7.30
2012,10,17,07,21,7.30
2012,10,17,07,22,7.30
2012,10,17,07,23,7.30
2012,10,17,08,30,7.20
2012,10,17,08,31,7.20
2012,10,17,08,32,7.20
2012,10,17,08,33,7.20
2012,10,17,08,34,7.20
2012,10,17,08,35,7.20
2012,10,17,08,36,7.20
2012,10,17,08,37,7.20
2012,10,17,08,38,7.30
2012,10,17,08,39,7.30
2012,10,17,08,40,7.30
2012,10,17,08,41,7.30
2012,10,17,08,42,7.30
2012,10,17,08,43,7.30
2012,10,17,08,44,7.40
2012,10,17,08,45,7.40
2012,10,17,08,46,7.50
2012,10,17,08,47,7.50
2012,10,17,08,48,7.50
2012,10,17,08,49,7.60
2012,10,17,08,50,7.60
2012,10,17,08,51,7.60
2012,10,17,08,52,7.60
2012,10,17,08,53,7.70
2012,10,17,08,54,7.70
2012,10,17,08,55,7.70
2012,10,17,08,56,7.70
2012,10,17,08,57,7.70
2012,10,17,08,58,7.80
2012,10,17,08,59,7.80
2012,10,17,09,00,7.80
2012,10,17,09,01,7.80
2012,10,17,09,02,7.80
2012,10,17,09,03,7.80
2012,10,17,09,04,7.80
2012,10,17,09,05,7.90
2012,10,17,09,06,7.90
2012,10,17,09,07,7.90
2012,10,17,09,08,7.90
2012,10,17,09,09,7.90
2012,10,17,09,10,8.00
2012,10,17,09,11,8.00
2012,10,17,09,12,8.10
2012,10,17,09,13,8.10
2012,10,17,09,14,8.10
2012,10,17,09,15,8.10
2012,10,17,09,16,8.10
2012,10,17,09,17,8.10
2012,10,17,09,18,8.10
2012,10,17,09,19,8.20
2012,10,17,09,20,8.20
2012,10,17,09,21,8.20
2012,10,17,09,22,8.20
2012,10,17,09,23,8.20
2012,10,17,09,24,8.30
2012,10,17,09,25,8.30
2012,10,17,09,26,8.30
2012,10,17,09,27,8.30
2012,10,17,09,28,8.30
2012,10,17,09,29,8.30
2012,10,17,09,30,8.40
2012,10,17,09,31,8.40
2012,10,17,09,32,8.40
2012,10,17,09,33,8.40
2012,10,17,09,34,8.40
2012,10,17,09,35,8.50
2012,10,17,09,36,8.50
2012,10,17,09,37,8.60
2012,10,17,09,38,8.60
2012,10,17,09,39,8.60
2012,10,17,09,40,8.60
2012,10,17,09,41,8.70
2012,10,17,09,42,8.70
2012,10,17,09,43,8.70
2012,10,17,09,44,8.70
2012,10,17,09,45,8.80
2012,10,17,09,46,8.80
2012,10,17,09,47,8.80
2012,10,17,09,48,8.80
2012,10,17,09,49,8.90
2012,10,17,09,50,8.90
2012,10,17,09,51,8.90
2012,10,17,09,52,8.90
2012,10,17,09,53,9.00
2012,10,17,09,54,9.00
2012,10,17,09,55,9.00
2012,10,17,09,56,9.10
2012,10,17,09,57,9.10
2012,10,17,09,58,9.10
2012,10,17,09,59,9.10
2012,10,17,10,00,9.10
2012,10,17,10,01,9.10
2012,10,17,10,02,9.20
2012,10,17,10,03,9.20
2012,10,17,10,04,9.20
2012,10,17,10,05,9.20
2012,10,17,10,06,9.20
2012,10,17,10,07,9.30
2012,10,17,10,08,9.30
2012,10,17,10,09,9.30
2012,10,17,10,10,9.40
2012,10,17,10,11,9.40
2012,10,17,10,12,9.50
2012,10,17,10,13,9.50
2012,10,17,10,14,9.60
2012,10,17,10,15,9.60
2012,10,17,10,16,9.70
2012,10,17,10,17,9.70
2012,10,17,10,18,9.80
2012,10,17,10,19,9.90
2012,10,17,10,20,9.90
2012,10,17,10,21,10.00
2012,10,17,10,22,10.10
2012,10,17,10,23,10.10
2012,10,17,10,24,10.20
2012,10,17,10,25,10.30
2012,10,17,10,26,10.30
2012,10,17,10,27,10.40
2012,10,17,10,28,10.40
2012,10,17,10,29,10.40
2012,10,17,10,30,10.50
2012,10,17,10,31,10.50
2012,10,17,10,32,10.50
2012,10,17,10,33,10.60
2012,10,17,10,34,10.60
2012,10,17,10,35,10.60
2012,10,17,10,36,10.60
2012,10,17,10,37,10.60
2012,10,17,10,38,10.70
2012,10,17,10,39,10.70
2012,10,17,10,40,10.70
2012,10,17,10,41,10.80
2012,10,17,10,42,10.80
2012,10,17,10,43,10.90
2012,10,17,10,44,10.90
2012,10,17,10,45,11.00
2012,10,17,10,46,11.00
2012,10,17,10,47,11.10
2012,10,17,10,48,11.10
2012,10,17,10,49,11.20
2012,10,17,10,50,11.20
2012,10,17,10,51,11.20
2012,10,17,10,52,11.20
2012,10,17,10,53,11.20
2012,10,17,10,54,11.30
2012,10,17,10,55,11.30
2012,10,17,10,56,11.30
2012,10,17,10,57,11.30
2012,10,17,10,58,11.30
2012,10,17,10,59,11.30
2012,10,17,11,00,11.30
2012,10,17,11,01,11.40
2012,10,17,11,02,11.40
2012,10,17,11,03,11.40
2012,10,17,11,04,11.40
2012,10,17,11,05,11.40
2012,10,17,11,06,11.50
2012,10,17,11,07,11.50
2012,10,17,11,08,11.50
2012,10,17,11,09,11.50
2012,10,17,11,10,11.50
2012,10,17,11,11,11.50
2012,10,17,11,12,11.50
2012,10,17,11,13,11.50
2012,10,17,11,14,11.50
2012,10,17,11,15,11.40
2012,10,17,11,16,11.40
2012,10,17,11,17,11.40
2012,10,17,11,18,11.40
2012,10,17,11,19,11.40
2012,10,17,11,20,11.40
2012,10,17,11,21,11.50
2012,10,17,11,22,11.50
2012,10,17,11,23,11.50
2012,10,17,11,24,11.50
2012,10,17,11,25,11.50
2012,10,17,11,26,11.50
2012,10,17,11,27,11.60
2012,10,17,11,28,11.60
2012,10,17,11,29,11.70
2012,10,17,11,30,11.70
2012,10,17,11,31,11.70
2012,10,17,11,32,11.70
2012,10,17,11,33,11.70
2012,10,17,11,34,11.70
2012,10,17,11,35,11.70
2012,10,17,11,36,11.80
2012,10,17,11,37,11.80
2012,10,17,11,38,11.80
2012,10,17,11,39,11.80
2012,10,17,11,40,11.80
2012,10,17,11,41,11.80
2012,10,17,11,42,11.80
2012,10,17,11,43,11.80
2012,10,17,11,44,11.80
2012,10,17,11,45,11.80
2012,10,17,11,46,11.70
2012,10,17,11,47,11.70
2012,10,17,11,48,11.70
2012,10,17,11,49,11.70
2012,10,17,11,50,11.70
2012,10,17,11,51,11.80
2012,10,17,11,52,11.80
2012,10,17,11,53,11.80
2012,10,17,11,54,11.90
2012,10,17,11,55,11.90
2012,10,17,11,56,12.00
2012,10,17,11,57,12.00
2012,10,17,11,58,12.00
2012,10,17,11,59,12.00
2012,10,17,12,00,12.00
2012,10,17,12,01,12.00
2012,10,17,12,02,12.00
2012,10,17,12,03,12.00
2012,10,17,12,04,12.00
2012,10,17,12,05,12.00
2012,10,17,12,06,12.00
2012,10,17,12,07,12.00
2012,10,17,12,08,12.00
2012,10,17,12,09,12.00
2012,10,17,12,10,12.00
2012,10,17,12,11,11.90
2012,10,17,12,12,11.90
2012,10,17,12,13,11.90
2012,10,17,12,14,11.90
2012,10,17,12,15,11.90
2012,10,17,12,16,11.90
2012,10,17,12,17,11.90
2012,10,17,12,18,11.90
2012,10,17,12,19,11.90
2012,10,17,12,20,11.90
2012,10,17,12,21,11.90
2012,10,17,12,22,12.00
2012,10,17,12,23,12.00
2012,10,17,12,24,12.00
2012,10,17,12,25,12.00
2012,10,17,12,26,11.90
2012,10,17,12,27,11.90
2012,10,17,12,28,11.90
2012,10,17,12,29,11.90
2012,10,17,12,30,11.90
2012,10,17,12,31,12.00
2012,10,17,12,32,12.00
2012,10,17,12,33,12.00
2012,10,17,12,34,12.00
2012,10,17,12,35,12.10
2012,10,17,12,36,12.10
2012,10,17,12,37,12.20
2012,10,17,12,38,12.20
2012,10,17,12,39,12.30
2012,10,17,12,40,12.30
2012,10,17,12,41,12.30
2012,10,17,12,42,12.30
2012,10,17,12,43,12.30
2012,10,17,12,44,12.40
2012,10,17,12,45,12.40
2012,10,17,12,46,12.40
2012,10,17,12,47,12.40
2012,10,17,12,48,12.40
2012,10,17,12,49,12.40
2012,10,17,12,50,12.40
2012,10,17,12,51,12.50
2012,10,17,12,52,12.50
2012,10,17,12,53,12.50
2012,10,17,12,54,12.50
2012,10,17,12,55,12.50
2012,10,17,12,56,12.50
2012,10,17,12,57,12.60
2012,10,17,12,58,12.60
2012,10,17,12,59,12.70
2012,10,17,13,00,12.70
2012,10,17,13,01,12.80
2012,10,17,13,02,12.80
2012,10,17,13,03,12.80
2012,10,17,13,04,12.80
2012,10,17,13,05,12.70
2012,10,17,13,06,12.70
2012,10,17,13,07,12.70
2012,10,17,13,08,12.70
2012,10,17,13,09,12.70
2012,10,17,13,10,12.70
2012,10,17,13,11,12.60
2012,10,17,13,12,12.60
2012,10,17,13,13,12.60
2012,10,17,13,14,12.60
2012,10,17,13,15,12.60
2012,10,17,13,16,12.50
2012,10,17,13,17,12.50
2012,10,17,13,18,12.40
2012,10,17,13,19,12.40
2012,10,17,13,20,12.40
2012,10,17,13,21,12.40
2012,10,17,13,22,12.40
2012,10,17,13,23,12.40
2012,10,17,13,24,12.30
2012,10,17,13,25,12.30
2012,10,17,13,26,12.30
2012,10,17,13,27,12.30
2012,10,17,13,28,12.40
2012,10,17,13,29,12.40
2012,10,17,13,30,12.40
2012,10,17,13,31,12.40
2012,10,17,13,32,12.40
2012,10,17,13,33,12.40
2012,10,17,13,34,12.50
2012,10,17,13,35,12.60
2012,10,17,13,36,12.60
2012,10,17,13,37,12.60
2012,10,17,13,38,12.70
2012,10,17,13,39,12.70
2012,10,17,13,40,12.60
2012,10,17,13,41,12.60
2012,10,17,13,42,12.50
2012,10,17,13,43,12.50
2012,10,17,13,44,12.40
2012,10,17,13,45,12.40
2012,10,17,13,46,12.30
2012,10,17,13,47,12.30
2012,10,17,13,48,12.30
2012,10,17,13,49,12.30
2012,10,17,13,50,12.30
2012,10,17,13,51,12.30
2012,10,17,13,52,12.30
2012,10,17,13,53,12.30
2012,10,17,13,54,12.30
2012,10,17,13,55,12.30
2012,10,17,13,56,12.30
2012,10,17,13,57,12.30
2012,10,17,13,58,12.30
2012,10,17,13,59,12.30
2012,10,17,14,00,12.40
2012,10,17,14,01,12.40
2012,10,17,14,02,12.50
2012,10,17,14,03,12.40
2012,10,17,14,04,12.50
2012,10,17,14,05,12.50
2012,10,17,14,06,12.50
2012,10,17,14,07,12.50
2012,10,17,14,08,12.50
2012,10,17,14,09,12.50
2012,10,17,14,10,12.50
2012,10,17,14,11,12.50
2012,10,17,14,12,12.50
2012,10,17,14,13,12.60
2012,10,17,14,14,12.60
2012,10,17,14,15,12.60
2012,10,17,14,16,12.60
2012,10,17,14,17,12.60
2012,10,17,14,18,12.60
2012,10,17,14,19,12.70
2012,10,17,14,20,12.70
2012,10,17,14,21,12.80
2012,10,17,14,22,12.80
2012,10,17,14,23,12.80
2012,10,17,14,24,12.80
2012,10,17,14,25,12.80
2012,10,17,14,26,12.80
2012,10,17,14,27,12.80
2012,10,17,14,28,12.80
2012,10,17,14,29,12.80
2012,10,17,14,30,12.70
2012,10,17,14,31,12.70
2012,10,17,14,32,12.70
2012,10,17,14,33,12.70
2012,10,17,14,34,12.70
2012,10,17,14,35,12.60
2012,10,17,14,36,12.60
2012,10,17,14,37,12.60
2012,10,17,14,38,12.60
2012,10,17,14,39,12.60
2012,10,17,14,40,12.60
2012,10,17,14,41,12.60
2012,10,17,14,42,12.60
2012,10,17,14,43,12.60
2012,10,17,14,44,12.60
2012,10,17,14,45,12.60
2012,10,17,14,46,12.60
2012,10,17,14,47,12.60
2012,10,17,14,48,12.60
2012,10,17,14,49,12.50
2012,10,17,14,50,12.50
2012,10,17,14,51,12.50
2012,10,17,14,52,12.50
2012,10,17,14,53,12.40
2012,10,17,14,54,12.40
2012,10,17,14,55,12.40
2012,10,17,14,56,12.30
2012,10,17,14,57,12.30
2012,10,17,14,58,12.30
2012,10,17,14,59,12.30
2012,10,17,15,00,12.30
2012,10,17,15,01,12.30
2012,10,17,15,02,12.30
2012,10,17,15,03,12.40
2012,10,17,15,04,12.40
2012,10,17,15,05,12.40
2012,10,17,15,06,12.40
2012,10,17,15,07,12.40
2012,10,17,15,08,12.40
2012,10,17,15,09,12.50
2012,10,17,15,10,12.50
2012,10,17,15,11,12.50
2012,10,17,15,12,12.50
2012,10,17,15,13,12.50
2012,10,17,15,14,12.40
2012,10,17,15,15,12.40
2012,10,17,15,16,12.40
2012,10,17,15,17,12.50
2012,10,17,15,18,12.50
2012,10,17,15,19,12.50
2012,10,17,15,20,12.50
2012,10,17,15,21,12.40
2012,10,17,15,22,12.40
2012,10,17,15,23,12.30
2012,10,17,15,24,12.30
2012,10,17,15,25,12.20
2012,10,17,15,26,12.10
2012,10,17,15,27,12.00
2012,10,17,15,28,11.90
2012,10,17,15,29,11.90
2012,10,17,15,30,11.80
2012,10,17,15,31,11.80
2012,10,17,15,32,11.80
2012,10,17,15,33,11.80
2012,10,17,15,34,11.80
2012,10,17,15,35,11.70
2012,10,17,15,36,11.70
2012,10,17,15,37,11.70
2012,10,17,15,38,11.70
2012,10,17,15,39,11.70
2012,10,17,15,40,11.70
2012,10,17,15,41,11.70
2012,10,17,15,42,11.70
2012,10,17,15,43,11.80
2012,10,17,15,44,11.80
2012,10,17,15,45,11.80
2012,10,17,15,46,11.80
2012,10,17,15,47,11.80
2012,10,17,15,48,11.80
2012,10,17,15,49,11.80
2012,10,17,15,50,11.80
2012,10,17,15,51,11.80
2012,10,17,15,52,11.80
2012,10,17,15,53,11.80
2012,10,17,15,54,11.80
2012,10,17,15,55,11.80
2012,10,17,15,56,11.80
2012,10,17,15,57,11.80
2012,10,17,15,58,11.80
2012,10,17,15,59,11.80
2012,10,17,16,00,11.80
2012,10,17,16,01,11.80
2012,10,17,16,02,11.80
2012,10,17,16,03,11.80
2012,10,17,16,04,11.80
2012,10,17,16,05,11.80
2012,10,17,16,06,11.70
2012,10,17,16,07,11.70
2012,10,17,16,08,11.80
2012,10,17,16,09,11.80
2012,10,17,16,10,11.80
2012,10,17,16,11,11.80
2012,10,17,16,12,11.80
2012,10,17,16,13,11.70
2012,10,17,16,14,11.70
2012,10,17,16,15,11.70
2012,10,17,16,16,11.70
2012,10,17,16,17,11.70
2012,10,17,16,18,11.70
2012,10,17,16,19,11.70
2012,10,17,16,20,11.70
2012,10,17,16,21,11.70
2012,10,17,16,22,11.70
2012,10,17,16,23,11.70
2012,10,17,16,24,11.70
2012,10,17,16,25,11.70
2012,10,17,16,26,11.70
2012,10,17,16,27,11.80
2012,10,17,16,28,11.80
2012,10,17,16,29,11.80
2012,10,17,16,30,11.80
2012,10,17,16,31,11.80
2012,10,17,16,32,11.80
2012,10,17,16,33,11.80
2012,10,17,16,34,11.80
2012,10,17,16,35,11.80
2012,10,17,16,36,11.80
2012,10,17,16,37,11.80
2012,10,17,16,38,11.80
2012,10,17,16,39,11.80
2012,10,17,16,40,11.80
2012,10,17,16,41,11.80
2012,10,17,16,42,11.80
2012,10,17,16,43,11.80
2012,10,17,16,44,11.80
2012,10,17,16,45,11.80
2012,10,17,16,46,11.80
2012,10,17,16,47,11.80
2012,10,17,16,48,11.80
2012,10,17,16,49,11.90
2012,10,17,16,50,11.80
2012,10,17,16,51,11.80
2012,10,17,16,52,11.80
2012,10,17,16,53,11.80
2012,10,17,16,54,11.80
2012,10,17,16,55,11.80
2012,10,17,16,56,11.80
2012,10,17,16,57,11.80
2012,10,17,16,58,11.80
2012,10,17,16,59,11.80
2012,10,17,17,00,11.80
2012,10,17,17,01,11.80
2012,10,17,17,02,11.80
2012,10,17,17,03,11.80
2012,10,17,17,04,11.80
2012,10,17,17,05,11.80
2012,10,17,17,06,11.80
2012,10,17,17,07,11.80
2012,10,17,17,08,11.70
2012,10,17,17,09,11.70
2012,10,17,17,10,11.70
2012,10,17,17,11,11.70
2012,10,17,17,12,11.70
2012,10,17,17,13,11.70
2012,10,17,17,14,11.70
2012,10,17,17,15,11.70
2012,10,17,17,16,11.70
2012,10,17,17,17,11.60
2012,10,17,17,18,11.60
2012,10,17,17,19,11.60
2012,10,17,17,20,11.60
2012,10,17,17,21,11.60
2012,10,17,17,22,11.60
2012,10,17,17,23,11.60
2012,10,17,17,24,11.60
2012,10,17,17,25,11.60
2012,10,17,17,26,11.60
2012,10,17,17,27,11.60
2012,10,17,17,28,11.50
2012,10,17,17,29,11.50
2012,10,17,17,30,11.50
2012,10,17,17,31,11.50
2012,10,17,17,32,11.50
2012,10,17,17,33,11.40
2012,10,17,17,34,11.40
2012,10,17,17,35,11.40
2012,10,17,17,36,11.40
2012,10,17,17,37,11.40
2012,10,17,17,38,11.40
2012,10,17,17,39,11.40
2012,10,17,17,40,11.40
2012,10,17,17,41,11.40
2012,10,17,17,42,11.40
2012,10,17,17,43,11.40
2012,10,17,17,44,11.40
2012,10,17,17,45,11.40
2012,10,17,17,46,11.40
2012,10,17,17,47,11.40
2012,10,17,17,48,11.40
2012,10,17,17,49,11.40
2012,10,17,17,50,11.30
2012,10,17,17,51,11.30
2012,10,17,17,52,11.30
2012,10,17,17,53,11.30
2012,10,17,17,54,11.30
2012,10,17,17,55,11.30
2012,10,17,17,56,11.30
2012,10,17,17,57,11.30
2012,10,17,17,58,11.30
2012,10,17,17,59,11.30
2012,10,17,18,00,11.30
2012,10,17,18,01,11.30
2012,10,17,18,02,11.30
2012,10,17,18,03,11.30
2012,10,17,18,04,11.30
2012,10,17,18,05,11.30
2012,10,17,18,06,11.30
2012,10,17,18,07,11.30
2012,10,17,18,08,11.30
2012,10,17,18,09,11.30
2012,10,17,18,10,11.30
2012,10,17,18,11,11.30
2012,10,17,18,12,11.30
2012,10,17,18,13,11.30
2012,10,17,18,14,11.30
2012,10,17,18,15,11.30
2012,10,17,18,16,11.30
2012,10,17,18,17,11.30
2012,10,17,18,18,11.30
2012,10,17,18,19,11.30
2012,10,17,18,20,11.30
2012,10,17,18,21,11.30
2012,10,17,18,22,11.30
2012,10,17,18,23,11.30
2012,10,17,18,24,11.30
2012,10,17,18,25,11.30
2012,10,17,18,26,11.30
2012,10,17,18,27,11.20
2012,10,17,18,28,11.20
2012,10,17,18,29,11.20
2012,10,17,18,30,11.20
2012,10,17,18,31,11.20
2012,10,17,18,32,11.20
2012,10,17,18,33,11.20
2012,10,17,18,34,11.20
2012,10,17,18,35,11.20
2012,10,17,18,36,11.10
2012,10,17,18,37,11.10
2012,10,17,18,38,11.10
2012,10,17,18,39,11.10
2012,10,17,18,40,11.10
2012,10,17,18,41,11.10
2012,10,17,18,42,11.10
2012,10,17,18,43,11.00
2012,10,17,18,44,11.00
2012,10,17,18,45,11.00